Погода в Боровом

Россия / Челябинская область     54°39′24″N   62°18′10″E
темп.,
°C
ветер,
м/с
пор.,
м/с
влажн.,
%
обл.,
%
осадки,
мм/ч
давл.,
гПа
погр.,
м
8 мая, сб
сб823:00+13ю22395 0.0 101916
02:00+11ю2244100 0.0 101916
05:00+10ююз2245100 0.0 101910
08:00+14ю2440100 0.0 1019183
11:00+18ююв2330100 0.0 1018742
14:00+20в2224100 0.0 10172366
17:00+19ссв2226100 0.0 10162220
20:00+17св2236100 0.0 101622
9 мая, вс
вс923:00+14ююз0038100 0.0 101510
02:00+13ссз334298 0.0 101538
05:00+13с3544100 0.0 1015106
08:00+15с3541100 0.0 1015262
11:00+20ссв5630100 0.0 10141042
14:00+22св5727100 0.0 10143117
17:00+19юв9941100 0.0 1015859
20:00+16всв2353100 0.0 101749
10 мая, пн
пн1023:00+15св225895 0.0 101838
02:00+12св227199 0.0 101933
05:00+11с357589 0.0 102094
08:00+14св47535 0.0 1021433
11:00+18св67345 0.0 10211501
14:00+20всв662754 0.0 10221948
17:00+20всв55275 0.0 10221888
20:00+16в37390 0.0 1023130
11 мая, вт
вт1123:00+12всв34410 0.0 102546
02:00+10вюв22525 0.0 102520
05:00+9ююв225692 0.0 102611
08:00+13ююз2344100 0.0 1027224
11:00+18ююз2233100 0.0 1027962
14:00+20зюз2328100 0.0 10261574
17:00+20ссз122881 0.0 10251280
20:00+18в013841 0.0 102611
12 мая, ср
ср1223:00+16ссз35467 0.0 1026123
02:00+12ссв488211 0.0 1027153
05:00+9ссв388694 0.0 1029162
08:00+13ссв4657100 0.0 1030465
11:00+17ссв4636100 0.0 10291267
14:00+19с463290 0.0 10281969
17:00+19ссз564232 0.0 10281545
20:00+15ссв5853100 0.0 1028374